sat.trackr.live / text

‹ back to catalog

STARLINK-36786

NORAD 67872 · 2026-034Y

PAYLOAD ACTIVE UNKNOWN

§ Identity

Operator
Country
US
Launch date
2026-02-20
Launch site
AFETR
Launch vehicle
Mass (kg)
RCS (m²)

Purposes: comms

External: N2YO · Heavens-Above · Gunter

§ Orbital elements

Epoch: 2026-05-25T04:57:01.310688Z

Period
94.11 min
Inclination
53.1574°
Eccentricity
0.0000942
Mean motion
15.30200546 rev/d
Perigee alt
474.6 km
Apogee alt
475.9 km
Semi-major
6,853.4 km
B*
6.3019e-4
RAAN
208.6176°
Arg perigee
92.6910°
Mean anomaly
267.4199°
Rev number
1,575

§ Raw data

STARLINK-367861 67872U 26034Y   26145.20626517  .00018352  00000+0  63019-3 0  99922 67872  53.1574 208.6176 0000942  92.6910 267.4199 15.30200546 15751

JSON: /api/v1/satellites/67872 · /tle

For live sub-satellite position, see the globe view (requires WebGL).

§ Visibility from observer

Set your observer location to see the next 7 days of passes ≥ 10°. The values pass through the URL so the page stays shareable.

No JS? Fill the form by hand. The geolocation button needs JavaScript.